sat.trackr.live / text

‹ back to catalog

STARLINK-36246

NORAD 67939 · 2026-037H

PAYLOAD ACTIVE UNKNOWN

§ Identity

Operator
Country
US
Launch date
2026-02-24
Launch site
AFETR
Launch vehicle
Mass (kg)
RCS (m²)

Purposes: comms

External: N2YO · Heavens-Above · Gunter

§ Orbital elements

Epoch: 2026-05-25T05:13:08.875776Z

Period
94.27 min
Inclination
43.0007°
Eccentricity
0.0000775
Mean motion
15.27589620 rev/d
Perigee alt
482.5 km
Apogee alt
483.6 km
Semi-major
6,861.2 km
B*
6.4056e-4
RAAN
118.6347°
Arg perigee
269.4658°
Mean anomaly
90.6105°
Rev number
1,504

§ Raw data

STARLINK-362461 67939U 26037H   26145.21746384  .00017411  00000+0  64056-3 0  99922 67939  43.0007 118.6347 0000775 269.4658  90.6105 15.27589620 15045

JSON: /api/v1/satellites/67939 · /tle

For live sub-satellite position, see the globe view (requires WebGL).

§ Visibility from observer

Set your observer location to see the next 7 days of passes ≥ 10°. The values pass through the URL so the page stays shareable.

No JS? Fill the form by hand. The geolocation button needs JavaScript.